This demonstration page uses our WeatherBlox Daily Observations layout. Learn more.

Left ArrowRight Arrow

39.01783, -85.05884

Hourly Observations for April 16, 2020

Temp ( °F °C ) Dew Point ( °F °C ) Humidity (%) Winds ( mph kmh ) Pressure ( in mb ) Visibility ( mi km ) Precip ( " mm )
12:52 am 00:52 Clear 33 0.6 20 -6.7 58 58 N 5 7 30.21 1023 10 16 N/A
1:52 am 01:52 Clear 32 undefined 21 -6.1 64 64 N 3 6 30.22 1023 10 16 N/A
2:52 am 02:52 Clear 31 -0.6 20 -6.7 64 64 N N/A 30.23 1024 10 16 N/A
3:52 am 03:52 Clear 27 -2.8 20 -6.7 75 75 SSW 3 6 30.24 1024 10 16 N/A
4:52 am 04:52 Clear 27 -2.8 21 -6.1 78 78 SW 3 6 30.26 1025 10 16 N/A
5:52 am 05:52 Clear 26 -3.3 21 -6.1 81 81 SSW 5 7 30.26 1025 10 16 N/A
6:52 am 06:52 Clear 27 -2.8 21 -6.1 78 78 SSW 5 7 30.28 1025 10 16 N/A
7:52 am 07:52 Sunny 27 -2.8 23 -5 85 85 N N/A 30.30 1026 9 14 N/A
8:52 am 08:52 Sunny 35 1.7 23 -5 61 61 SSW 6 9 30.32 1027 10 16 N/A
9:52 am 09:52 Mostly Sunny 39 3.9 22 -5.6 50 50 W 9 15 30.33 1027 10 16 N/A
10:52 am 10:52 Partly Cloudy 41 5 19 -7.2 41 41 SW 7 11 30.34 1027 10 16 N/A
11:14 am 11:14 Mostly Cloudy 42 5.6 19 -7.2 40 40 W 7 11 30.36 1028 10 16 N/A
11:52 am 11:52 Partly Cloudy 44 6.7 21 -6.1 40 40 VRB 6 9 30.35 1028 10 16 N/A
11:55 am 11:55 Partly Cloudy 44 6.7 21 -6.1 40 40 WNW 6 9 30.36 1028 10 16 N/A
12:52 pm 12:52 Partly Cloudy 47 8.3 22 -5.6 37 37 W 14 22 30.34 1027 10 16 N/A
1:52 pm 13:52 Mostly Cloudy 46 7.8 23 -5 40 40 W 14 22 30.33 1027 10 16 N/A
2:52 pm 14:52 Mostly Cloudy 51 10.6 26 -3.3 38 38 W 9 15 30.32 1027 10 16 N/A
3:52 pm 15:52 Mostly Cloudy 48 8.9 23 -5 37 37 WSW 12 19 30.31 1026 10 16 N/A
4:52 pm 16:52 Mostly Cloudy 49 9.4 22 -5.6 35 35 WSW 10 17 30.29 1026 10 16 N/A
5:52 pm 17:52 Mostly Sunny 50 10 22 -5.6 33 33 WSW 10 17 30.26 1025 10 16 N/A
6:52 pm 18:52 Mostly Cloudy 48 8.9 24 -4.4 39 39 WNW 9 15 30.26 1025 10 16 N/A
7:52 pm 19:52 Cloudy 46 7.8 25 -3.9 44 44 WSW 5 7 30.26 1025 10 16 N/A
8:52 pm 20:52 Cloudy 45 7.2 25 -3.9 46 46 WSW 5 7 30.26 1025 10 16 N/A
9:52 pm 21:52 Cloudy 45 7.2 26 -3.3 48 48 WSW 3 6 30.29 1026 10 16 N/A
10:52 pm 22:52 Cloudy 44 6.7 26 -3.3 49 49 N N/A 30.29 1026 10 16 N/A
11:52 pm 23:52 Cloudy 45 7.2 28 -2.2 52 52 N N/A 30.29 1026 10 16 0.00 0.00

Powered by AerisWeather